STARLINK-2535 (48295 NORAD) Tracking and Keplerian Element Data

This shows tracking and keplerian element data for the satellite.

Feedback or suggestion? Click here.




ElementValue
Catalog48295
NameSTARLINK-2535
Epoch Orbit187
Epoch Day170.58334491
Epoch Year2021
RAAN273.4067
Inclination53.0524
Eccentricity0.0001881
Argument of Perigee43.5944
Mean Anonmoly279.2474
Mean Motion15.73245687
Decay Rate0.0001093
L11 48295U 21036V 21170.58334491 .00010930 00000-0 82029-4 0 9996
L22 48295 53.0524 273.4067 0001881 43.5944 279.2474 15.73245687 1874

Live tracking and technical data element details for STARLINK-2535 (NORAD 48295). STARLINK-2535 can be tracked NOW for your location showing map with azimuth and elevation plus other details from your city location.

Track the satellite on the map from your city or location and see movement details for azimuth, elevation, latitude, longitude, range, height, and movement on the map or in text.







IsCatalogInMostPopularTable: catalog: 48295, numindb: 18
Update: records affected: 1



GetName: 48295 STARLINK-2535

Hit Count: updated at: Mon, 21 Jun 2021 04:02:08 GMT